Terminal Aerodrome Forecast
Issued by NWS

Home | Current Version | Previous Version | Text Only | Print | Product List | Glossary On
Versions: 1 2 3 4 5 6 7 8 9 10 11 12 13 14 15 16 17 18 19 20 21 22 23 24 25 26 27 28 29 30 31 32 33 34 35 36 37 38 39 40 41 42 43 44 45 46 47 48
000
FTUS42 KMFL 170918 AAA
TAFMIA
TAF AMD
KMIA 170918Z 1709/1806 VRB03KT P6SM FEW025 SCT150
     FM171500 23008KT P6SM VCSH SCT050 BKN100
     FM172000 20010KT P6SM VCTS BKN040CB
     FM180100 25004KT P6SM FEW035 SCT250=

USA.gov is the U.S. government's official web portal to all federal, state and local government web resources and services.